Regional Weather Roundup
Issued by NWS

Home | Current Version | Previous Version | Graphics & Text | Print | Product List | Glossary On
Versions: 1 2 3 4 5 6 7 8 9 10 11 12 13 14 15 16 17 18 19 20 21 22 23 24 25 26 27 28 29 30 31 32 33 34 35 36 37 38 39 40 41 42 43 44 45 46 47 48 49 50
000
ASUS43 KLOT 061421
RWRIL

ILLINOIS REGIONAL WEATHER ROUNDUP
NATIONAL WEATHER SERVICE CHICAGO/ROMEOVILLE IL
900 AM CDT WED MAY 06 2015

NOTE: "FAIR" INDICATES FEW OR NO CLOUDS BELOW 12,000 FEET WITH NO
SIGNIFICANT WEATHER AND/OR OBSTRUCTIONS TO VISIBILITY.

* THESE STATIONS ARE NOT UNDER NWS QUALITY CONTROL. THEY ALSO MAY NOT
  REPORT WEATHER SUCH AS PRECIPITATION OR FOG.

ILZ001-002-007-009-015-016-024-061500-
NORTHWEST ILLINOIS

CITY           SKY/WX    TMP DP  RH WIND       PRES   REMARKS
MOLINE         MOSUNNY   62  58  86 E7        30.12F FOG
STERLING*      CLOUDY    59  55  88 SE8       30.15F
SAVANNA*       CLOUDY    58  55  91 E7        30.15F FOG
$$

ILZ003-004-008-010-011-017-018-061500-
NORTH CENTRAL ILLINOIS

CITY           SKY/WX    TMP DP  RH WIND       PRES   REMARKS
ROCKFORD       CLOUDY    54  52  93 SE8       30.18F FOG
FREEPORT*      CLOUDY    53  52  99 SE9       30.19S FOG
ROCHELLE*      FOG       56  56 100 SE8       30.17F VSB 1
DE KALB*       FOG       54  54  99 SE9       30.18F VSB 1/4
PERU*          FOG       58  58  99 E3        30.17S VSB 3/4
$$

ILZ005-006-012>014-019>023-061500-
NORTHEAST ILLINOIS

CITY           SKY/WX    TMP DP  RH WIND       PRES   REMARKS
CHICAGO-OHARE  FOG       53  53 100 CALM      30.18F VSB 1/4
CHICAGO-MIDWAY FOG       57  56  96 SE6       30.19S VSB 1/4
AURORA         FOG       58  55  90 E8        30.18F VSB 1
LANSING*       CLOUDY    59  57  94 S6        30.19S FOG
JOLIET*        FOG       60  59  99 E5        30.18S VSB 1
WAUKEGAN       FOG       49  49 100 CALM      30.20S VSB 1/4
DUPAGE AIRPORT CLOUDY    55  55 100 E5        30.18S FOG
KANKAKEE*      CLOUDY    64  62  94 SE7       30.18F FOG
WHEELING       CLOUDY    54  52  93 CALM      30.20F FOG
MORRIS*        FOG       60  59  98 E6        30.16S VSB<1/4
ROMEOVILLE*    FOG       57  57 100 E5        30.18S VSB 1
NORTHERLY ISL    N/A     52  51  97 CALM        N/A
$$

LMZ740>746-061500-
SOUTHERN LAKE MICHIGAN

STATION/POSITION SKY/WX   TEMP    WIND        PRES    VSBY  WAVE
                          AIR SEA DIR/SP/G                  HT/PER
                          (F)     (DEG/KT/KT) (MB)    (MI)  (FT/S)
HARRISON CRIB              48      30/  1/  2   N/A
BURNHAM HARBOR             52        CALM       N/A
CALUMET HARBOR             50      CALM  /  1   N/A
BURNS HARBOR               59     170/  4/  7 1022.7S
MICHIGAN CITY              61     130/  8/ 11   N/A
MICHIGAN CITY 6N           56 52  180/  4/  6   N/A           1
ST. JOSEPH                 55 50  140/  4/  6   N/A           1
$$

ILZ025>027-034>036-040-047-049-050-058-095>099-061500-
WEST-CENTRAL ILLINOIS

CITY           SKY/WX    TMP DP  RH WIND       PRES   REMARKS
QUINCY         SUNNY     72  54  53 S10       30.10F
GALESBURG*     PTSUNNY   65  61  85 SE5       30.13S FOG
MACOMB*        MOSUNNY   69  61  77 S8        30.14S
JACKSONVILLE*  SUNNY     76  56  48 S12       30.14S
PITTSFIELD*    SUNNY     74  55  52 S10       30.13S
$$

ILZ028>032-037-038-041>044-048-051>054-059>061-061500-
CENTRAL ILLINOIS

CITY           SKY/WX    TMP DP  RH WIND       PRES   REMARKS
PONTIAC        PTSUNNY   66  66 100 SE9       30.18S FOG
BLOOMINGTON    MOSUNNY   71  61  70 SW8       30.18S
DECATUR        MOSUNNY   75  55  49 SW12      30.18R
PEORIA         PTSUNNY   68  60  75 SE6       30.15S HAZE
LACON*         CLOUDY    63  60  91 CALM      30.16R FOG
LINCOLN*       MOSUNNY   72  60  66 S3        30.14S
SPRINGFIELD    MOSUNNY   77  56  48 SW14      30.15S
TAYLORVILLE    SUNNY     73  54  49 S10       30.16F
$$

ILZ033-039-045-046-055>057-062-063-061500-
EAST-CENTRAL ILLINOIS

CITY           SKY/WX    TMP DP  RH WIND       PRES   REMARKS
CHAMPAIGN      MOSUNNY   76  54  46 S12       30.18S
DANVILLE*      PTSUNNY   71  57  61 S7        30.17S
RANTOUL*       CLOUDY    71  60  68 S6        30.19R
MATTOON        SUNNY     74  55  51 S8        30.18S
PARIS*         MOSUNNY   76  56  49 SW8       30.20S
$$

ILZ079-100>102-061500-
SOUTHWEST ILLINOIS

CITY           SKY/WX    TMP DP  RH WIND       PRES   REMARKS
ALTON          MOSUNNY   75  61  60 S9        30.15F
BELLEVILLE     SUNNY     73  58  60 VRB2      30.14F
CAHOKIA*       SUNNY     73  58  59 S7        30.14F
SPARTA*        SUNNY     71  58  63 S6        30.17S
$$

ILZ064>066-069>071-074>076-080>082-084>086-088>090-092>094-061500-
SOUTH-CENTRAL ILLINOIS

CITY           SKY/WX    TMP DP  RH WIND       PRES   REMARKS
CARBONDALE     SUNNY     74  57  55 S7        30.17S
CAIRO*         CLOUDY    70  58  66 S3        30.18S
EFFINGHAM*     SUNNY     74  53  46 S5        30.20S
MARION         MOSUNNY   73  59  60 S9        30.19R
MT. VERNON     SUNNY    N/A N/A N/A S6        30.19R
CENTRALIA*     SUNNY     78  55  44 S6        30.17S
SALEM*         SUNNY     76  55  48 S8        30.18S
METROPOLIS*    MOSUNNY   73  60  63 CALM      30.18S
$$

ILZ067-068-072-073-078-083-087-091-061500-
SOUTHEAST ILLINOIS

CITY           SKY/WX    TMP DP  RH WIND       PRES   REMARKS
LAWRENCEVILLE  SUNNY     74  56  53 SW3       30.20S
FLORA*         SUNNY     72  56  56 SW6       30.19S
FAIRFIELD*     SUNNY     73  56  56 S3        30.18R
HARRISBURG*    SUNNY     72  57  60 CALM      30.20R
ROBINSON*      SUNNY     74  56  52 SW3       30.20S
CARMI*         SUNNY     73  54  50 S3        30.19S
$$

ABBREVIATIONS USED IN REMARKS
   TC - TEMPERATURE IN CELSIUS
  WCI - WIND CHILL INDEX
   HX - HEAT INDEX
  VSB - VISIBILITY
$$




USA.gov is the U.S. government's official web portal to all federal, state and local government web resources and services.